EW5121 Weather Reports


Display with metric or nautical units.
time (UTC)temp
F
wind
direction
speed
MPH
gust
MPH
rain 1hr
in
rain 24hr
in
rain mn
in
humidity
%
barometer
mb
20181024050226 72 175 3.0 5.0 0.00 0.00 0.00 66 1014.2
20181024045225 72 242 3.0 8.0 0.00 0.00 0.00 66 1014.2
20181024044224 72 77 1.0 5.0 0.00 0.00 0.00 66 1014.6
20181024043222 72 190 4.0 9.0 0.00 0.00 0.00 66 1014.6
20181024042222 72 162 5.0 9.0 0.00 0.00 0.00 66 1014.6
20181024041220 72 174 3.0 6.0 0.00 0.00 0.00 66 1014.6
20181024040218 72 164 4.0 8.0 0.00 0.00 0.00 66 1014.6
20181024035216 72 202 3.0 11.0 0.00 0.00 0.00 66 1014.6
20181024034215 72 166 7.0 11.0 0.00 0.00 0.00 66 1014.6
20181024033213 72 145 7.0 12.0 0.00 0.00 0.00 66 1014.6
20181024032212 72 175 7.0 11.0 0.00 0.00 0.00 66 1014.9
20181024031210 72 136 5.0 9.0 0.00 0.00 0.00 66 1015.2
20181024030209 72 135 5.0 10.0 0.00 0.00 0.00 66 1015.2
20181024025207 72 168 4.0 9.0 0.00 0.00 0.00 66 1015.2
20181024024206 72 194 7.0 9.0 0.00 0.00 0.00 66 1015.2
20181024023201 73 165 6.0 8.0 0.00 0.00 0.00 66 1015.2
20181024022159 73 167 6.0 9.0 0.00 0.00 0.00 66 1015.6
20181024021157 73 151 5.0 8.0 0.00 0.00 0.00 66 1015.6
20181024020156 73 122 3.0 7.0 0.00 0.00 0.00 65 1015.9
20181024015154 73 169 7.0 10.0 0.00 0.00 0.00 65 1015.9
20181024014152 73 84 6.0 11.0 0.00 0.00 0.00 65 1016.3
20181024013151 73 165 5.0 10.0 0.00 0.00 0.00 65 1016.3
20181024012150 74 181 5.0 11.0 0.00 0.00 0.00 65 1016.3
20181024011148 74 126 5.0 9.0 0.00 0.00 0.00 65 1016.3
20181024010146 74 184 4.0 8.0 0.00 0.00 0.00 64 1015.9
20181024005145 74 150 6.0 8.0 0.00 0.00 0.00 64 1015.6
20181024004143 74 159 4.0 9.0 0.00 0.00 0.00 64 1015.6
20181024003142 74 162 5.0 13.0 0.00 0.00 0.00 64 1015.2
20181024002140 74 160 7.0 13.0 0.00 0.00 0.00 64 1014.9
20181024001139 75 138 8.0 11.0 0.00 0.00 0.00 63 1014.6
20181024000138 75 171 10.0 13.0 0.00 0.00 0.00 63 1014.6
20181023235137 75 150 6.0 13.0 0.00 0.00 0.00 63 1014.6
20181023234134 76 151 8.0 14.0 0.00 0.00 0.00 63 1014.6
20181023233131 76 172 13.0 17.0 0.00 0.00 0.00 63 1014.2
20181023232129 76 171 9.0 12.0 0.00 0.00 0.00 63 1014.2
20181023231123 77 170 7.0 12.0 0.00 0.00 0.00 62 1014.2
20181023230111 77 189 11.0 16.0 0.00 0.00 0.00 62 1013.9
20181023225104 78 182 7.0 13.0 0.00 0.00 0.00 62 1013.9
20181023224057 78 142 8.0 13.0 0.00 0.00 0.00 61 1013.5
20181023223050 79 130 8.0 13.0 0.00 0.00 0.00 60 1013.5
20181023222046 80 145 7.0 10.0 0.00 0.00 0.00 60 1013.2
20181023221032 81 133 4.0 12.0 0.00 0.00 0.00 59 1013.2
20181023220029 81 140 6.0 13.0 0.00 0.00 0.00 58 1013.2
20181023215023 82 156 8.0 11.0 0.00 0.00 0.00 58 1012.9
20181023214020 82 158 7.0 15.0 0.00 0.00 0.00 57 1012.5
20181023213016 83 166 6.0 10.0 0.00 0.00 0.00 55 1012.2
20181023212013 84 155 5.0 9.0 0.00 0.00 0.00 55 1011.9
20181023211011 85 133 4.0 12.0 0.00 0.00 0.00 54 1011.5
20181023210007 86 145 4.0 7.0 0.00 0.00 0.00 51 1011.2
20181023205005 86 165 5.0 7.0 0.00 0.00 0.00 49 1011.2
20181023204015 86 168 1.0 4.0 0.00 0.00 0.00 49 1011.2
20181023203002 86 156 2.0 5.0 0.00 0.00 0.00 48 1010.8
20181023201959 86 170 2.0 3.0 0.00 0.00 0.00 48 1010.8
20181023200958 86 163 1.0 3.0 0.00 0.00 0.00 48 1010.8
20181023195955 87 224 2.0 3.0 0.00 0.00 0.00 48 1010.8
20181023194943 87 178 0.0 2.0 0.00 0.00 0.00 48 1010.8
20181023193932 87 244 1.0 3.0 0.00 0.00 0.00 48 1010.8
20181023192853 87 247 2.0 3.0 0.00 0.00 0.00 47 1010.8
20181023191843 87 232 1.0 3.0 0.00 0.00 0.00 47 1011.2
20181023190831 88 248 1.0 3.0 0.00 0.00 0.00 47 1011.2
20181023185821 88 145 1.0 4.0 0.00 0.00 0.00 47 1011.2
20181023184816 88 145 2.0 4.0 0.00 0.00 0.00 47 1011.2
20181023183814 88 218 0.0 3.0 0.00 0.00 0.00 47 1011.5
20181023182810 88 222 1.0 5.0 0.00 0.00 0.00 47 1011.9
20181023181808 88 251 3.0 6.0 0.00 0.00 0.00 47 1011.9
20181023180806 89 172 2.0 5.0 0.00 0.00 0.00 47 1012.2
20181023175804 88 272 1.0 3.0 0.00 0.00 0.00 48 1012.2
20181023174801 88 249 1.0 3.0 0.00 0.00 0.00 49 1012.2
20181023173800 88 69 2.0 4.0 0.00 0.00 0.00 49 1012.5
20181023172756 88 39 1.0 3.0 0.00 0.00 0.00 49 1012.9
20181023171754 89 232 2.0 3.0 0.00 0.00 0.00 48 1012.9
20181023170752 89 301 1.0 3.0 0.00 0.00 0.00 49 1012.9
20181023165751 89 175 1.0 3.0 0.00 0.00 0.00 49 1012.9
20181023164544 89 188 1.0 4.0 0.00 0.00 0.00 49 1013.2
20181023163533 89 302 2.0 4.0 0.00 0.00 0.00 49 1013.5
20181023162525 90 64 1.0 2.0 0.00 0.00 0.00 49 1013.5
20181023161520 90 356 1.0 3.0 0.00 0.00 0.00 48 1013.5
20181023160515 91 187 1.0 6.0 0.00 0.00 0.00 48 1013.9
20181023155509 91 216 1.0 3.0 0.00 0.00 0.00 48 1013.9
20181023154501 91 236 1.0 3.0 0.00 0.00 0.00 49 1013.9
20181023153500 91 252 1.0 3.0 0.00 0.00 0.00 49 1013.9
20181023152456 92 205 1.0 4.0 0.00 0.00 0.00 48 1014.2
20181023151444 92 8 2.0 3.0 0.00 0.00 0.00 48 1014.2
20181023150430 91 57 1.0 3.0 0.00 0.00 0.00 48 1014.2
20181023145418 91 8 1.0 4.0 0.00 0.00 0.00 49 1014.2
20181023144358 90 222 1.0 3.0 0.00 0.00 0.00 50 1014.6
20181023143345 89 87 3.0 6.0 0.00 0.00 0.00 50 1014.6
20181023142335 88 134 1.0 3.0 0.00 0.00 0.00 52 1014.6
20181023141327 88 91 2.0 4.0 0.00 0.00 0.00 51 1014.6
20181023140318 88 112 1.0 4.0 0.00 0.00 0.00 52 1014.6
20181023135306 87 355 2.0 3.0 0.00 0.00 0.00 53 1014.6
20181023134249 86 82 1.0 3.0 0.00 0.00 0.00 53 1014.9
20181023133243 86 21 2.0 3.0 0.00 0.00 0.00 55 1014.9
20181023132237 85 9 1.0 3.0 0.00 0.00 0.00 55 1014.9
20181023131227 84 43 0.0 4.0 0.00 0.00 0.00 56 1014.9
20181023130215 82 15 1.0 3.0 0.00 0.00 0.00 57 1014.9
20181023125203 81 40 1.0 4.0 0.00 0.00 0.00 58 1014.9
20181023124151 80 56 3.0 5.0 0.00 0.00 0.00 59 1015.2
20181023123139 79 90 1.0 3.0 0.00 0.00 0.00 59 1015.2
20181023122109 79 46 1.0 4.0 0.00 0.00 0.00 60 1015.2
20181023121101 79 27 1.0 5.0 0.00 0.00 0.00 61 1015.2
20181023120048 78 23 1.0 4.0 0.00 0.00 0.00 63 1015.2
20181023115034 77 22 0.0 2.0 0.00 0.00 0.00 63 1014.9
20181023114023 76 39 2.0 3.0 0.00 0.00 0.00 64 1015.2
20181023113013 75 82 1.0 1.0 0.00 0.00 0.00 65 1014.9
20181023112001 74 259 1.0 1.0 0.00 0.00 0.00 66 1014.9
20181023110951 73 96 1.0 2.0 0.00 0.00 0.00 66 1014.9
20181023105945 72 113 1.0 2.0 0.00 0.00 0.00 66 1014.9
20181023104942 72 88 2.0 3.0 0.00 0.00 0.00 66 1014.9
20181023103939 71 76 1.0 3.0 0.00 0.00 0.00 66 1014.9
20181023102937 71 149 1.0 2.0 0.00 0.00 0.00 66 1014.6
20181023101935 70 147 1.0 1.0 0.00 0.00 0.00 67 1014.6
20181023100932 70 125 0.0 2.0 0.00 0.00 0.00 67 1014.6
20181023095930 69 165 0.0 1.0 0.00 0.00 0.00 67 1014.2
20181023094927 68 188 0.0 1.0 0.00 0.00 0.00 68 1014.2
20181023093925 68 158 0.0 2.0 0.00 0.00 0.00 68 1014.2
20181023092923 68 135 0.0 1.0 0.00 0.00 0.00 68 1013.9
20181023090921 67 225 0.0 0.0 0.00 0.00 0.00 68 1013.2
20181023085919 67 158 0.0 0.0 0.00 0.00 0.00 68 1013.2
20181023084917 67 145 0.0 1.0 0.00 0.00 0.00 68 1013.2
20181023083915 67 180 0.0 0.0 0.00 0.00 0.00 68 1013.2
20181023082913 67 248 0.0 0.0 0.00 0.00 0.00 68 1013.2
20181023081911 67 248 0.0 0.0 0.00 0.00 0.00 68 1012.9
20181023080910 67 241 0.0 1.0 0.00 0.00 0.00 68 1012.9
20181023075907 67 225 0.0 0.0 0.00 0.00 0.00 68 1012.9
20181023074906 67 293 0.0 0.0 0.00 0.00 0.00 68 1012.9
20181023073905 67 293 0.0 0.0 0.00 0.00 0.00 68 1012.9
20181023072903 67 293 0.0 0.0 0.00 0.00 0.00 68 1012.9
20181023071903 67 293 0.0 0.0 0.00 0.00 0.00 67 1012.5
20181023070901 68 293 0.0 0.0 0.00 0.00 0.00 67 1012.9
20181023065859 68 38 0.0 1.0 0.00 0.00 0.00 67 1012.5
20181023064858 68 45 0.0 1.0 0.00 0.00 0.00 67 1012.5
20181023063856 68 68 0.0 1.0 0.00 0.00 0.00 67 1012.5
20181023062856 68 113 0.0 1.0 0.00 0.00 0.00 66 1012.5
20181023061854 68 166 1.0 2.0 0.00 0.00 0.00 66 1012.5
20181023060852 68 161 1.0 4.0 0.00 0.00 0.00 66 1012.2
20181023055850 69 173 1.0 3.0 0.00 0.00 0.00 66 1012.5
20181023054849 69 166 2.0 3.0 0.00 0.00 0.00 66 1012.5
20181023053848 69 207 1.0 1.0 0.00 0.00 0.00 66 1012.5
20181023052846 69 192 0.0 2.0 0.00 0.00 0.00 66 1012.5
20181023051844 69 149 1.0 1.0 0.00 0.00 0.00 65 1012.9